Location: Foligno
(42.9600°N, 12.7050°E)
Time: 17:17:00
(UTC+02:00)

ISS - Pass Details

Date: 23 May 2018
Orbit: 402 x 407 km, 51.6° (Epoch: 27 May)

Event Time Altitude Azimuth Distance (km) Brightness Sun altitude
Rises 03:49:37 0° 300° (WNW) 2,318 -0.1 -16.2°
Reaches altitude 10° 03:51:43 10° 297° (WNW) 1,456 -1.2 -15.9°
Maximum altitude 03:54:56 57° 217° (SW) 477 -3.9 -15.5°
Drops below altitude 10° 03:58:07 10° 138° (SE) 1,448 -1.1 -15.2°
Sets 04:00:12 0° 134° (SE) 2,304 0.0 -14.9°
